Location: Unspecified
(0.0000°N, 0.0000°E)
Time: 17:58:57
(UTC+00:00)

deb r/b Ablestar - Visible Passes

Search period start: 14 January 2026 00:00
Search period end: 24 January 2026 00:00
Orbit: 737 x 818 km, 66.9° (Epoch: 14 January)

Date Brightness Start Highest point End Pass type
(mag) Time Alt. Az. Time Alt. Az. Time Alt. Az.
14 Jan ? 03:29:31 17° ENE 03:30:06 18° ENE 03:33:39 10° ESE visible
14 Jan ? 05:10:01 19° WNW 05:12:57 31° WSW 05:17:48 10° S visible
15 Jan ? 04:37:13 46° WNW 04:38:19 54° WSW 04:43:43 10° S visible
16 Jan ? 04:04:22 71° SSE 04:04:22 71° SSE 04:09:16 10° SSE visible
17 Jan ? 03:31:25 32° SE 03:31:25 32° SE 03:34:29 10° SSE visible
17 Jan ? 05:11:56 10° WSW 05:12:04 10° WSW 05:12:40 10° WSW visible
18 Jan ? 02:58:26 14° SE 02:58:26 14° SE 02:59:19 10° SE visible
18 Jan ? 04:38:56 16° SW 04:38:56 16° SW 04:41:08 10° SSW visible
19 Jan ? 04:05:51 18° SSW 04:05:51 18° SSW 04:07:34 10° S visible
20 Jan ? 03:32:42 14° S 03:32:42 14° S 03:33:29 10° S visible
